This demonstration page uses our WeatherBlox Daily Observations layout. Learn more.

Left ArrowRight Arrow

39.51506, -84.39828

Hourly Observations for December 5, 2015

Temp ( °F °C ) Dew Point ( °F °C ) Humidity (%) Winds ( mph kmh ) Pressure ( in mb ) Visibility ( mi km ) Precip ( " mm )
12:15 am 00:15 Cloudy with Mist and Fog 32 undefined 29 -1.7 88 88 N N/A 30.71 1040 3 4.82802 N/A
12:35 am 00:35 Cloudy with Mist and Fog 32 -0.1 29 -1.8 88 88 N N/A 30.71 1040 2.5 4.02335 N/A
12:55 am 00:55 Cloudy with Mist and Fog 31 -0.7 28 -2.3 89 89 N N/A 30.71 1040 1.5 2.41401 N/A
1:15 am 01:15 Cloudy with Mist and Fog 31 -0.7 28 -2.3 89 89 N N/A 30.71 1040 1 1.60934 N/A
1:35 am 01:35 Cloudy with Mist and Fog 31 -0.7 28 -2.3 89 89 N N/A 30.71 1040 1 1.60934 N/A
1:55 am 01:55 Cloudy with Mist and Fog 32 undefined 29 -1.5 90 90 N N/A 30.71 1040 1 1.60934 N/A
2:15 am 02:15 Cloudy with Mist and Fog 31 -0.4 29 -1.9 90 90 N N/A 30.71 1040 0.75 1.207005 N/A
2:35 am 02:35 Cloudy with Freezing Fog 31 -0.4 29 -1.8 90 90 N N/A 30.71 1040 0.5 0.80467 N/A
2:55 am 02:55 Cloudy with Fog 32 undefined 29 -1.5 90 90 N N/A 30.71 1040 0.5 0.80467 N/A
3:15 am 03:15 Cloudy with Freezing Fog 32 -0.2 29 -1.7 90 90 N N/A 30.71 1040 0.5 0.80467 N/A
3:35 am 03:35 Cloudy with Fog 32 undefined 29 -1.5 90 90 N N/A 30.71 1040 0.25 0.402335 N/A
3:55 am 03:55 Cloudy with Freezing Fog 31 -0.7 28 -2.1 90 90 N N/A 30.71 1040 0.5 0.80467 N/A
4:15 am 04:15 Cloudy with Freezing Fog 31 -0.7 28 -2.1 90 90 ENE 5 7 30.71 1040 0.25 0.402335 N/A
4:35 am 04:35 Cloudy with Freezing Fog 30 -1.2 27 -2.6 90 90 E 5 7 30.71 1040 0.25 0.402335 N/A
4:55 am 04:55 Cloudy with Freezing Fog 29 -1.5 27 -2.8 91 91 NE 3 6 30.71 1040 0.5 0.80467 N/A
5:15 am 05:15 Cloudy with Freezing Fog 29 -1.5 27 -2.8 91 91 E 5 7 30.71 1040 0.25 0.402335 N/A
5:35 am 05:35 Cloudy with Freezing Fog 29 -1.5 27 -2.8 91 91 N 3 6 30.71 1040 0.25 0.402335 N/A
5:55 am 05:55 Cloudy with Light Snow 29 -1.5 27 -2.8 91 91 ENE 3 6 30.77 1042 0.25 0.402335 N/A
6:15 am 06:15 Cloudy with Light Snow 29 -1.5 27 -2.8 91 91 N N/A 30.77 1042 0.25 0.402335 N/A
6:35 am 06:35 Cloudy with Freezing Fog 29 -1.5 27 -2.8 91 91 N N/A 30.77 1042 0.25 0.402335 N/A
6:55 am 06:55 Cloudy with Freezing Fog 29 -1.5 27 -2.8 91 91 N N/A 30.77 1042 0.5 0.80467 N/A
7:15 am 07:15 Cloudy with Mist and Fog 29 -1.5 27 -3 90 90 N N/A 30.77 1042 0.75 1.207005 N/A
7:35 am 07:35 Cloudy with Light Snow 29 -1.5 27 -3 90 90 N N/A 30.77 1042 0.5 0.80467 N/A
7:55 am 07:55 Cloudy with Freezing Fog 29 -1.5 27 -3 90 90 N N/A 30.77 1042 0.25 0.402335 N/A
8:15 am 08:15 Cloudy with Freezing Fog 29 -1.5 27 -3 90 90 ENE 3 6 30.77 1042 5 8.0467 N/A
8:35 am 08:35 Cloudy with Freezing Fog 29 -1.5 27 -3 90 90 NNE 5 7 30.77 1042 5 8.0467 N/A
8:55 am 08:55 Cloudy with Freezing Fog 29 -1.5 27 -3 90 90 NE 6 9 30.77 1042 5 8.0467 N/A
9:15 am 09:15 Cloudy with Freezing Fog 29 -1.5 27 -3 90 90 NNE 3 6 30.77 1042 0.25 0.402335 N/A
9:35 am 09:35 Cloudy with Freezing Fog 29 -1.5 27 -3 90 90 NNE 5 7 30.77 1042 0.25 0.402335 N/A
9:55 am 09:55 Cloudy with Freezing Fog 29 -1.5 27 -3 90 90 N N/A 30.77 1042 0.25 0.402335 N/A
10:15 am 10:15 Cloudy with Freezing Fog 29 -1.5 27 -2.9 90 90 N N/A 30.77 1042 0.5 0.80467 N/A
10:35 am 10:35 Cloudy with Freezing Fog 29 -1.5 27 -3 90 90 N N/A 30.77 1042 0.25 0.402335 N/A
10:55 am 10:55 Cloudy with Mist and Fog 29 -1.5 27 -2.8 91 91 N N/A 30.77 1042 1 1.60934 N/A
11:15 am 11:15 Cloudy with Mist and Fog 31 -0.8 28 -2.2 90 90 N N/A 30.77 1042 1.5 2.41401 N/A
11:35 am 11:35 Cloudy with Mist and Fog 32 undefined 29 -1.5 90 90 N N/A 30.74 1041 2 3.21868 N/A
11:55 am 11:55 Cloudy with Mist and Fog 32 undefined 29 -1.5 90 90 N N/A 30.74 1041 2 3.21868 N/A
12:15 pm 12:15 Cloudy with Mist and Fog 34 1.2 32 undefined 92 92 N N/A 30.71 1040 2.5 4.02335 N/A
12:35 pm 12:35 Cloudy with Mist and Fog 34 1.2 32 undefined 92 92 N N/A 30.71 1040 3 4.82802 N/A
12:55 pm 12:55 Cloudy with Mist and Fog 34 1.2 32 undefined 92 92 WNW 3 6 30.71 1040 4 6.43736 N/A
1:15 pm 13:15 Mostly Cloudy with Mist and Fog 37 2.6 34 1 89 89 N N/A 30.71 1040 5 8.0467 N/A
1:35 pm 13:35 Partly Cloudy with Mist and Fog 37 2.6 33 0.8 88 88 W 3 6 30.71 1040 5 8.0467 N/A
1:55 pm 13:55 Partly Cloudy with Mist and Fog 39 4 35 1.5 84 84 WSW 5 7 30.68 1039 3 4.82802 N/A
2:15 pm 14:15 Hazy 39 4 33 0.8 80 80 N N/A 30.68 1039 2.5 4.02335 N/A
2:35 pm 14:35 Hazy 39 4 33 0.7 79 79 N N/A 30.68 1039 3 4.82802 N/A
2:55 pm 14:55 Hazy 40 4.5 33 0.7 77 77 N N/A 30.68 1039 4 6.43736 N/A
3:15 pm 15:15 Hazy 42 5.5 34 1 73 73 N N/A 30.65 1038 5 8.0467 N/A
3:35 pm 15:35 Sunny 42 5.7 33 0.8 71 71 N N/A 30.65 1038 7 11.26538 N/A
3:55 pm 15:55 Sunny 43 6.3 35 1.5 72 72 N N/A 30.65 1038 10 16.0934 N/A
4:15 pm 16:15 Sunny 43 6.3 35 1.7 73 73 ENE 5 7 30.65 1038 10 16.0934 N/A
4:35 pm 16:35 Sunny 43 6 35 1.8 75 75 ENE 6 9 30.65 1038 10 16.0934 N/A
4:55 pm 16:55 Sunny 41 5.2 35 1.6 78 78 E 7 11 30.65 1038 10 16.0934 N/A
5:15 pm 17:15 Clear 39 4 34 1 81 81 E 7 11 30.65 1038 10 16.0934 N/A
5:35 pm 17:35 Clear 37 2.6 32 undefined 83 83 E 5 7 30.65 1038 10 16.0934 N/A
5:55 pm 17:55 Clear 37 2.7 33 0.4 85 85 E 5 7 30.65 1038 10 16.0934 N/A
6:15 pm 18:15 Clear 36 2.4 33 0.4 87 87 NE 3 6 30.65 1038 7 11.26538 N/A
6:35 pm 18:35 Clear with Mist and Fog 34 1.2 31 -0.5 89 89 ENE 6 9 30.65 1038 5 8.0467 N/A
6:55 pm 18:55 Cloudy with Light Snow 34 1.2 31 -0.3 90 90 ENE 6 9 30.65 1038 0.25 0.402335 N/A
7:15 pm 19:15 Cloudy with Fog 37 2.6 34 1 89 89 ENE 6 9 30.65 1038 0.25 0.402335 N/A
7:35 pm 19:35 Cloudy with Fog 37 2.6 34 1 89 89 ENE 3 6 30.65 1038 0.25 0.402335 N/A
7:55 pm 19:55 Cloudy with Fog 37 2.6 34 1 89 89 ENE 5 7 30.65 1038 0.25 0.402335 N/A
8:15 pm 20:15 Cloudy with Fog 37 2.6 34 1 89 89 N N/A 30.65 1038 0.25 0.402335 N/A
8:35 pm 20:35 Cloudy with Fog 37 2.6 34 1.1 90 90 E 5 7 30.65 1038 0.25 0.402335 N/A
8:55 pm 20:55 Cloudy with Fog 36 2.3 33 0.8 90 90 ENE 5 7 30.62 1037 0.25 0.402335 N/A
9:15 pm 21:15 Cloudy with Fog 36 2.2 33 0.7 90 90 E 5 7 30.62 1037 0.25 0.402335 N/A
9:35 pm 21:35 Cloudy with Mist and Fog 34 1.2 32 undefined 92 92 E 5 7 30.62 1037 0.75 1.207005 N/A
9:55 pm 21:55 Cloudy with Mist and Fog 34 1.2 32 undefined 92 92 ENE 3 6 30.62 1037 0.75 1.207005 N/A
10:15 pm 22:15 Cloudy with Fog 34 1.2 32 -0.1 91 91 N N/A 30.62 1037 0.5 0.80467 N/A
10:35 pm 22:35 Cloudy with Fog 34 1.2 32 undefined 92 92 ENE 3 6 30.62 1037 0.5 0.80467 N/A
10:55 pm 22:55 Cloudy with Fog 34 1.2 32 undefined 92 92 N N/A 30.62 1037 0.5 0.80467 N/A
11:15 pm 23:15 Cloudy with Fog 34 1.2 32 undefined 92 92 N N/A 30.62 1037 0.5 0.80467 N/A
11:35 pm 23:35 Cloudy with Fog 34 1.2 32 undefined 92 92 ESE 3 6 30.62 1037 0.5 0.80467 N/A
11:55 pm 23:55 Cloudy with Fog 34 1.2 32 undefined 92 92 N N/A 30.62 1037 0.5 0.80467 N/A

Powered by AerisWeather